Location: Dittelbrunn
(50.0738°N, 10.2196°E)
Time: 03:26:47
(UTC+00:00)

Cosmos 1025 Rocket - Pass Details

Date: 18 September 2020
Orbit: 595 x 617 km, 82.5° (Epoch: 19 October)

Event Time Altitude Azimuth Distance (km) Brightness Sun altitude
Rises 18:45:07 0° 351° (N) 2,884 6.9 -13.4°
Reaches altitude 10° 18:47:21 10° 353° (N) 1,979 6.0 -13.7°
Maximum altitude 18:51:44 75° 79° (E) 641 2.9 -14.4°
Drops below altitude 10° 18:56:06 10° 165° (SSE) 1,973 5.3 -15.0°
Enters shadow 18:56:10 10° 165° (SSE) 1,997 5.3 -15.0°
